Location: Brantley
(31.5822°N, 86.2569°W)
Time: 02:41:01
(UTC+00:00)

Vanguard 2 - Pass Details

Date: 18 February 2026
Orbit: 553 x 2896 km, 32.9° (Epoch: 13 March)

Event Time Altitude Azimuth Distance (km) Brightness Sun altitude
Rises 12:33:07 0° 264° (W) 3,522 10.3 1.1°
Reaches altitude 10° 12:36:04 10° 265° (W) 2,313 9.4 1.7°
Maximum altitude 12:41:08 80° 353° (N) 623 7.2 2.8°
Drops below altitude 10° 12:45:07 10° 81° (E) 1,830 10.9 3.6°
Sets 12:47:13 0° 82° (E) 2,716 11.8 4.0°
